BHE1012 ZUCK-ZLDH

Flight info

Callsign BHE1012
Flight time N/A
Altitude 36100
Route URGEG1Z URGEG W80 WFX W179 OMBON W195 IDOPA W197 ANDIM B215 TODOD TODOD9
Aircraft B739/M-SDE2E3FGHIRWXY/LB1

Departure

Time 2026-04-19 03:19
Airport Chongqing Jiangbei International Airport (ZUCK)

Arrival

Time N/A
Airport Dunhuang Mogao International Airport (ZLDH)
Time Latitude Longitude Altitude Speed Heading
2026-04-19 02:58 29.71731 106.65758 1345 ft 0 kts 284°
2026-04-19 03:11 29.71730 106.65761 1339 ft 3 kts 284°
2026-04-19 03:11 29.71724 106.65790 1345 ft 4 kts 284°
2026-04-19 03:12 29.71721 106.65816 1346 ft 4 kts 251°
2026-04-19 03:12 29.71736 106.65834 1348 ft 4 kts 199°
2026-04-19 03:12 29.71747 106.65838 1345 ft 0 kts 195°
2026-04-19 03:15 29.71746 106.65838 1345 ft 1 kts 196°
2026-04-19 03:15 29.71735 106.65834 1340 ft 4 kts 196°
2026-04-19 03:15 29.71696 106.65830 1341 ft 6 kts 165°
2026-04-19 03:15 29.71663 106.65883 1337 ft 11 kts 109°
2026-04-19 03:16 29.71637 106.65973 1336 ft 12 kts 115°
2026-04-19 03:16 29.71565 106.65979 1336 ft 11 kts 194°
2026-04-19 03:16 29.71495 106.65985 1336 ft 11 kts 133°
2026-04-19 03:16 29.71483 106.66013 1336 ft 0 kts 107°
2026-04-19 03:17 29.71483 106.66015 1336 ft 2 kts 107°
2026-04-19 03:17 29.71474 106.66046 1340 ft 6 kts 107°
2026-04-19 03:17 29.71460 106.66096 1337 ft 8 kts 108°
2026-04-19 03:17 29.71475 106.66154 1337 ft 9 kts 31°
2026-04-19 03:18 29.71541 106.66179 1336 ft 10 kts 16°
2026-04-19 03:18 29.71721 106.66241 1334 ft 59 kts 17°
2026-04-19 03:18 29.72337 106.66454 1329 ft 124 kts 17°
2026-04-19 03:18 29.73317 106.66793 1352 ft 169 kts 17°
2026-04-19 03:19 29.74439 106.67168 2053 ft 165 kts 19°
2026-04-19 03:19 29.75603 106.67550 2572 ft 183 kts 20°
2026-04-19 03:19 29.76833 106.68010 3243 ft 189 kts 30°
2026-04-19 03:19 29.77974 106.68818 3807 ft 196 kts 36°
2026-04-19 03:20 29.79125 106.69676 4500 ft 200 kts 36°
2026-04-19 03:20 29.80365 106.70582 4825 ft 222 kts 34°
2026-04-19 03:20 29.81733 106.71596 5049 ft 244 kts 35°
2026-04-19 03:20 29.83182 106.72659 5632 ft 254 kts 33°
2026-04-19 03:21 29.84761 106.73791 5879 ft 282 kts 33°
2026-04-19 03:21 29.86496 106.75051 6183 ft 306 kts 34°
2026-04-19 03:21 29.88293 106.76381 7159 ft 303 kts 33°
2026-04-19 03:21 29.90059 106.77651 8154 ft 299 kts 33°
2026-04-19 03:22 29.91841 106.78934 8887 ft 304 kts 34°
2026-04-19 03:22 29.93645 106.80239 9642 ft 308 kts 34°
2026-04-19 03:22 29.95468 106.81563 10303 ft 314 kts 34°
2026-04-19 03:22 29.97368 106.82949 10639 ft 330 kts 33°
2026-04-19 03:23 29.99328 106.84379 10979 ft 346 kts 33°
2026-04-19 03:23 30.01528 106.85650 11238 ft 363 kts 15°
2026-04-19 03:23 30.04069 106.85906 11546 ft 375 kts 351°
2026-04-19 03:23 30.06542 106.84933 11895 ft 381 kts 326°
2026-04-19 03:24 30.08602 106.83022 12449 ft 382 kts 315°
2026-04-19 03:24 30.10552 106.80905 12947 ft 387 kts 314°
2026-04-19 03:24 30.12534 106.78754 13384 ft 394 kts 314°
2026-04-19 03:24 30.14551 106.76581 13828 ft 400 kts 315°
2026-04-19 03:25 30.16599 106.74394 14293 ft 402 kts 315°
2026-04-19 03:25 30.18670 106.72195 14776 ft 405 kts 315°
2026-04-19 03:25 30.20755 106.69988 15238 ft 408 kts 315°
2026-04-19 03:25 30.22856 106.67766 15695 ft 411 kts 315°
2026-04-19 03:26 30.24975 106.65526 16158 ft 414 kts 315°
2026-04-19 03:26 30.27107 106.63273 16611 ft 417 kts 315°
2026-04-19 03:26 30.29254 106.60999 17043 ft 420 kts 315°
2026-04-19 03:26 30.31413 106.58711 17469 ft 423 kts 315°
2026-04-19 03:27 30.33589 106.56404 17908 ft 425 kts 315°
2026-04-19 03:27 30.35777 106.54083 18288 ft 428 kts 315°
2026-04-19 03:27 30.37979 106.51744 18644 ft 431 kts 315°
2026-04-19 03:27 30.40195 106.49392 19026 ft 432 kts 315°
2026-04-19 03:28 30.42414 106.47035 19407 ft 434 kts 315°
2026-04-19 03:28 30.44646 106.44663 19771 ft 437 kts 315°
2026-04-19 03:28 30.46891 106.42274 20129 ft 439 kts 315°
2026-04-19 03:28 30.49141 106.39878 20492 ft 441 kts 315°
2026-04-19 03:29 30.51404 106.37468 20853 ft 443 kts 315°
2026-04-19 03:29 30.53673 106.35048 21207 ft 444 kts 315°
2026-04-19 03:29 30.55928 106.32642 21555 ft 446 kts 314°
2026-04-19 03:29 30.57914 106.29913 21855 ft 443 kts 297°
2026-04-19 03:30 30.59070 106.26634 22214 ft 437 kts 281°
2026-04-19 03:30 30.59439 106.23160 22533 ft 434 kts 265°
2026-04-19 03:30 30.59153 106.19681 22877 ft 434 kts 261°
2026-04-19 03:30 30.58760 106.16198 23185 ft 437 kts 260°
2026-04-19 03:31 30.58351 106.12697 23481 ft 438 kts 260°
2026-04-19 03:31 30.57950 106.09184 23745 ft 440 kts 261°
2026-04-19 03:31 30.57561 106.05655 23996 ft 442 kts 261°
2026-04-19 03:31 30.57182 106.02109 24245 ft 444 kts 261°
2026-04-19 03:32 30.56807 105.98538 24480 ft 446 kts 261°
2026-04-19 03:32 30.56433 105.94955 24727 ft 448 kts 262°
2026-04-19 03:32 30.56058 105.91359 24980 ft 450 kts 262°
2026-04-19 03:32 30.55680 105.87744 25217 ft 452 kts 262°
2026-04-19 03:33 30.55299 105.84122 25466 ft 453 kts 262°
2026-04-19 03:33 30.54916 105.80491 25704 ft 455 kts 262°
2026-04-19 03:33 30.54529 105.76838 25931 ft 457 kts 262°
2026-04-19 03:33 30.54139 105.73169 26165 ft 459 kts 262°
2026-04-19 03:34 30.53757 105.69496 26403 ft 460 kts 262°
2026-04-19 03:34 30.53383 105.65803 26634 ft 462 kts 263°
2026-04-19 03:34 30.53010 105.62099 26862 ft 463 kts 263°
2026-04-19 03:34 30.52631 105.58380 27093 ft 465 kts 263°
2026-04-19 03:35 30.52245 105.54652 27335 ft 466 kts 262°
2026-04-19 03:35 30.51842 105.50915 27539 ft 468 kts 262°
2026-04-19 03:35 30.51433 105.47175 27810 ft 468 kts 262°
2026-04-19 03:35 30.51029 105.43483 28165 ft 466 kts 262°
2026-04-19 03:36 30.50623 105.39762 28569 ft 464 kts 262°
2026-04-19 03:36 30.50220 105.36057 28965 ft 462 kts 262°
2026-04-19 03:36 30.49869 105.32354 29324 ft 462 kts 266°
2026-04-19 03:36 30.49903 105.28645 29694 ft 462 kts 275°
2026-04-19 03:37 30.50318 105.24951 30086 ft 460 kts 277°
2026-04-19 03:37 30.50774 105.21288 30443 ft 458 kts 277°
2026-04-19 03:37 30.51229 105.17640 30817 ft 457 kts 277°
2026-04-19 03:37 30.51672 105.14008 31191 ft 455 kts 277°
2026-04-19 03:38 30.52098 105.10402 31555 ft 453 kts 277°
2026-04-19 03:38 30.52515 105.06792 31913 ft 451 kts 277°
2026-04-19 03:38 30.52925 105.03184 32262 ft 450 kts 277°
2026-04-19 03:38 30.53332 104.99588 32576 ft 450 kts 277°
2026-04-19 03:39 30.53736 104.95999 32907 ft 448 kts 277°
2026-04-19 03:39 30.54138 104.92433 33252 ft 447 kts 277°
2026-04-19 03:39 30.54539 104.88865 33597 ft 445 kts 277°
2026-04-19 03:39 30.54938 104.85303 33916 ft 443 kts 277°
2026-04-19 03:40 30.55205 104.82920 34101 ft 442 kts 277°
2026-04-19 03:40 30.55600 104.79390 34372 ft 441 kts 277°
2026-04-19 03:40 30.55992 104.75873 34670 ft 439 kts 277°
2026-04-19 03:40 30.56386 104.72383 34950 ft 437 kts 278°
2026-04-19 03:41 30.56942 104.68933 35208 ft 435 kts 281°
2026-04-19 03:41 30.57614 104.65460 35471 ft 434 kts 282°
2026-04-19 03:41 30.58291 104.62041 35735 ft 432 kts 282°
2026-04-19 03:41 30.58941 104.58659 35950 ft 431 kts 282°
2026-04-19 03:42 30.59615 104.55245 35931 ft 434 kts 287°
2026-04-19 03:42 30.60906 104.52091 35953 ft 435 kts 303°
2026-04-19 03:42 30.62909 104.49451 35956 ft 438 kts 316°
2026-04-19 03:42 30.65401 104.47407 35935 ft 443 kts 331°
2026-04-19 03:43 30.68279 104.46090 35965 ft 446 kts 338°
2026-04-19 03:43 30.74211 104.43932 35954 ft 447 kts 339°
2026-04-19 03:44 30.80140 104.41731 35946 ft 448 kts 338°
2026-04-19 03:44 30.86071 104.39506 35938 ft 450 kts 342°
2026-04-19 03:45 30.92291 104.38712 35957 ft 456 kts 355°
2026-04-19 03:45 30.98685 104.38634 35948 ft 457 kts 355°
2026-04-19 03:46 31.05003 104.38527 35945 ft 457 kts 355°
2026-04-19 03:46 31.11361 104.38367 35953 ft 457 kts 354°
2026-04-19 03:47 31.17715 104.38194 35958 ft 457 kts 354°
2026-04-19 03:47 31.24078 104.38024 35960 ft 457 kts 354°
2026-04-19 03:48 31.30425 104.37747 35973 ft 456 kts 353°
2026-04-19 03:48 31.36766 104.37349 35965 ft 456 kts 353°
2026-04-19 03:49 31.43118 104.36958 35970 ft 457 kts 353°
2026-04-19 03:49 31.49465 104.36585 35985 ft 457 kts 353°
2026-04-19 03:50 31.55823 104.36218 35991 ft 457 kts 353°
2026-04-19 03:50 31.62184 104.35850 35997 ft 458 kts 353°
2026-04-19 03:51 31.68545 104.35480 36009 ft 458 kts 353°
2026-04-19 03:51 31.74877 104.35111 36036 ft 459 kts 353°
2026-04-19 03:52 31.81268 104.34758 36044 ft 460 kts 353°
2026-04-19 03:52 31.87664 104.34437 36032 ft 459 kts 353°
2026-04-19 03:53 31.94038 104.34117 36022 ft 459 kts 353°
2026-04-19 03:53 32.00394 104.33795 36040 ft 456 kts 353°
2026-04-19 03:54 32.06720 104.33469 36075 ft 455 kts 353°
2026-04-19 03:54 32.13061 104.33139 36058 ft 456 kts 353°
2026-04-19 03:55 32.19385 104.32817 36060 ft 454 kts 353°
2026-04-19 03:55 32.25672 104.32494 36060 ft 451 kts 353°
2026-04-19 03:56 32.31934 104.32170 36073 ft 449 kts 353°
2026-04-19 03:56 32.38169 104.31847 36076 ft 447 kts 353°
2026-04-19 03:57 32.44379 104.31528 36090 ft 447 kts 353°
2026-04-19 03:57 32.50602 104.31217 36087 ft 448 kts 353°
2026-04-19 03:58 32.56833 104.30905 36112 ft 447 kts 353°
2026-04-19 03:58 32.63067 104.30596 36105 ft 450 kts 353°
2026-04-19 03:59 32.69331 104.30298 36098 ft 451 kts 353°
2026-04-19 03:59 32.75610 104.29999 36109 ft 451 kts 353°
2026-04-19 04:00 32.81886 104.29698 36110 ft 451 kts 354°
2026-04-19 04:00 32.88094 104.29400 36113 ft 448 kts 354°
2026-04-19 04:01 32.94302 104.29102 36111 ft 445 kts 354°
2026-04-19 04:01 33.03562 104.28656 36123 ft 442 kts 354°
2026-04-19 04:02 33.09706 104.28360 36134 ft 441 kts 354°
2026-04-19 04:02 33.15835 104.28062 36132 ft 441 kts 354°
2026-04-19 04:03 33.21964 104.27766 36145 ft 441 kts 354°
2026-04-19 04:03 33.28101 104.27469 36153 ft 441 kts 354°
2026-04-19 04:04 33.34194 104.26866 36153 ft 436 kts 343°
2026-04-19 04:04 33.39837 104.24420 36157 ft 429 kts 328°
2026-04-19 04:05 33.44945 104.20873 36180 ft 427 kts 327°
2026-04-19 04:05 33.50115 104.17273 36187 ft 428 kts 328°
2026-04-19 04:06 33.55263 104.13776 36190 ft 429 kts 330°
2026-04-19 04:06 33.60953 104.11506 36209 ft 436 kts 346°
2026-04-19 04:07 33.67041 104.11041 36222 ft 442 kts 356°
2026-04-19 04:07 33.73189 104.11107 36246 ft 442 kts 356°
2026-04-19 04:08 33.79337 104.11173 36254 ft 442 kts 356°
2026-04-19 04:08 33.85483 104.11197 36263 ft 441 kts 355°
2026-04-19 04:09 33.91606 104.11201 36281 ft 439 kts 355°
2026-04-19 04:09 33.97715 104.11199 36294 ft 439 kts 355°
2026-04-19 04:10 34.03807 104.11199 36311 ft 436 kts 355°
2026-04-19 04:10 34.09877 104.11199 36323 ft 436 kts 355°
2026-04-19 04:11 34.15944 104.11198 36331 ft 436 kts 355°
2026-04-19 04:11 34.22012 104.11198 36333 ft 436 kts 355°